Theta_e
316 325 333 330 333 332 332 329 325 326 324 322 323 324 329 330 329 329 329 328 324 323 323 324 322 319 317 312 310 308 309 310 309 310 309 309 310 313 317 319 321 321 321
305 312 326 326 322 325 324 325 322 325 325 323 324 324 326 330 329 329 328 328 325 324 323 323 325 324 321 320 318 312 308 309 310 311 311 314 315 317 319 320 320 321 322
304 303 310 325 327 330 328 325 326 327 325 326 324 325 327 328 329 328 329 328 326 325 324 323 321 326 326 325 322 319 313 311 314 318 321 322 322 322 323 322 323 322 322
306 302 303 314 325 326 329 330 327 325 324 320 327 324 323 326 326 326 328 327 325 325 325 323 322 322 324 328 326 321 319 322 322 323 324 323 324 324 324 323 322 322 322
311 306 301 303 323 326 325 328 327 326 325 323 324 326 324 322 325 327 327 326 325 324 323 324 322 323 322 324 325 326 325 324 323 323 324 323 322 321 321 320 319 318 317
314 303 301 301 307 316 321 326 330 328 326 325 325 323 322 323 322 324 325 325 324 323 322 323 323 323 323 323 325 324 323 323 324 324 323 321 319 319 318 317 317 317 317
301 301 303 301 307 317 320 324 328 328 326 326 325 326 326 322 323 322 323 324 323 321 322 323 323 322 323 323 323 321 322 321 321 321 320 320 319 318 317 317 317 317 317
302 301 303 301 302 317 320 326 325 327 326 325 326 324 320 318 322 322 321 320 319 319 321 322 323 322 322 322 322 321 321 320 320 319 319 320 319 316 316 315 315 314 314
302 301 301 305 306 310 319 323 323 326 326 324 326 323 321 320 317 316 318 320 320 320 320 321 322 322 322 320 321 321 321 321 320 320 320 319 318 315 315 312 311 310 309
301 301 301 302 303 314 317 323 322 323 323 325 325 324 324 322 318 310 308 309 309 315 315 318 317 317 317 315 316 315 316 318 318 317 315 313 313 311 310 309 306 305 303
301 301 300 302 303 308 320 320 322 323 322 323 324 324 324 322 319 316 309 307 307 307 308 313 312 312 314 313 313 309 312 313 311 311 313 311 309 308 306 302 300 297 292
302 301 302 303 306 308 320 322 321 323 324 324 324 322 323 321 321 318 313 306 305 303 304 304 307 310 310 309 308 307 308 307 309 310 310 309 307 297 292 291 290 290 290
304 302 308 310 312 310 315 320 321 323 323 324 323 324 324 321 322 319 317 311 303 300 299 299 302 304 303 306 305 303 304 304 308 308 303 292 289 288 288 289 289 289 289
304 307 311 314 314 316 315 320 321 322 322 323 323 324 323 322 320 318 317 315 302 298 299 298 299 300 300 302 301 302 301 302 300 293 288 288 288 288 288 288 288 288 288
306 310 313 314 315 315 317 319 320 320 320 319 323 320 318 317 315 317 316 315 313 301 297 296 296 297 299 300 301 301 298 293 287 287 287 287 288 288 287 287 287 287 286
306 308 310 312 314 315 315 316 317 317 314 312 315 313 313 312 311 314 312 311 308 308 301 299 299 299 299 299 297 291 287 286 286 286 287 287 287 287 287 286 286 285 285
302 303 306 307 309 310 310 309 312 312 307 307 308 309 307 305 305 305 307 304 305 306 306 302 299 298 295 287 286 286 286 286 286 286 286 286 286 286 285 284 284 283 283
300 302 303 303 305 304 302 304 304 302 304 302 302 301 303 304 305 302 303 304 303 301 299 300 292 285 284 284 285 285 285 285 285 285 285 285 285 285 284 283 282 281 280
297 298 299 299 299 300 300 301 301 302 301 301 302 295 300 293 294 290 288 288 288 287 287 287 286 285 285 284 284 284 285 285 285 285 285 285 284 283 283 282 281 280 280
294 294 295 296 296 296 297 297 299 294 290 288 287 288 287 287 288 287 287 287 286 286 286 286 285 284 284 284 284 284 284 283 284 284 284 283 283 283 282 281 280 280 280
293 293 291 289 288 288 288 287 287 286 286 286 287 288 286 286 286 286 286 286 285 285 285 285 284 283 283 283 283 282 282 283 283 283 283 282 281 281 280 279 279 279 280
289 287 286 285 285 285 285 285 286 286 286 286 286 286 286 286 285 285 285 284 284 284 283 283 283 282 282 281 281 281 281 281 280 280 278 280 279 279 278 278 278 278 279
284 284 284 284 285 284 284 284 285 285 285 286 286 286 286 285 284 284 284 284 284 283 283 282 281 281 281 280 280 280 278 277 277 277 276 278 278 277 276 276 275 276 278
284 284 283 283 284 283 283 284 284 285 285 285 284 285 284 283 283 283 283 283 282 281 281 280 280 280 280 280 278 277 277 276 276 276 275 275 275 274 274 274 275 276 277
284 284 284 284 283 282 282 282 283 284 285 285 285 284 283 283 283 282 282 282 282 281 281 280 280 280 279 278 277 276 276 274 274 274 275 273 273 272 273 273 273 273 275
284 284 284 284 284 284 283 284 285 285 284 283 283 283 283 283 282 282 282 282 282 281 281 280 280 279 279 278 277 276 275 274 273 271 273 271 271 271 271 273 273 274 277
Wind_Speed
8 10 11 12 20 25 23 10 16 16 18 24 26 25 26 26 23 20 20 17 20 15 12 11 10 11 11 12 14 16 15 14 13 13 12 11 11 11 10 10 9 9 9
12 8 9 11 9 17 15 16 14 26 21 22 25 25 26 30 24 21 19 17 22 17 15 14 15 15 15 14 14 16 16 15 14 13 12 11 12 11 11 12 12 13 13
14 17 12 13 14 19 23 26 23 28 24 21 25 26 26 26 26 22 22 19 19 20 20 18 17 18 18 17 17 16 15 15 15 13 14 15 13 11 20 22 18 18 17
17 16 19 17 16 18 23 25 29 29 22 23 30 27 25 26 25 26 24 20 17 19 26 24 20 19 17 22 20 18 16 16 18 19 16 14 11 17 25 14 11 16 13
24 22 20 22 20 19 22 27 33 32 26 25 23 24 25 27 27 25 23 22 21 21 23 26 24 22 20 18 15 19 24 25 21 19 18 16 16 15 17 19 21 22 22
30 24 23 23 21 22 23 25 30 34 29 30 28 28 28 28 28 28 30 29 22 21 22 23 25 23 21 20 13 21 23 21 21 19 20 19 17 18 20 20 21 23 23
21 26 25 22 23 23 23 26 31 32 32 31 31 33 37 36 39 36 40 38 30 23 25 28 27 23 23 24 26 23 24 23 23 24 25 26 24 22 23 24 24 24 28
20 22 20 24 23 26 25 25 28 30 33 40 34 26 17 20 27 22 23 22 29 32 30 33 31 34 31 32 31 34 31 30 28 29 30 30 29 25 22 23 27 28 29
21 21 23 22 24 24 26 27 30 31 31 32 37 25 14 11 22 20 24 31 37 36 33 33 37 37 33 36 35 38 38 36 36 33 34 31 30 23 25 25 26 28 30
19 22 24 26 26 19 25 29 31 31 31 32 36 40 27 20 19 14 19 21 25 33 34 37 30 31 31 28 27 32 31 36 35 33 25 24 21 21 25 28 27 29 30
19 22 23 25 25 28 21 27 30 29 33 33 43 37 40 33 23 16 19 26 25 27 30 31 33 30 33 34 33 28 29 26 23 23 23 20 21 25 24 25 27 28 27
18 20 22 24 25 28 27 26 30 31 33 33 33 40 46 42 33 27 21 31 30 26 27 27 29 30 30 28 25 24 23 20 18 20 23 25 25 21 22 23 24 26 28
17 16 17 19 22 24 26 30 31 35 33 42 40 40 42 45 44 36 34 36 34 26 22 25 26 27 25 25 24 21 17 15 20 24 20 17 17 20 22 24 26 29 31
14 12 15 18 18 20 23 29 28 32 31 33 40 43 46 47 39 39 36 35 28 21 24 22 26 26 23 21 17 15 13 14 15 17 16 18 20 23 25 28 30 32 33
12 13 13 15 16 21 22 25 22 27 27 33 31 32 31 28 26 29 27 30 30 22 26 22 16 20 17 15 14 14 12 13 15 17 19 21 23 26 28 30 33 34 35
12 11 12 12 13 19 21 23 21 21 22 21 22 20 20 18 17 16 18 20 22 16 18 17 20 16 16 13 11 10 11 13 17 20 22 24 26 28 30 32 33 35 36
11 10 10 12 13 14 14 18 20 19 23 21 20 18 19 17 17 15 12 13 11 9 11 16 17 15 8 7 9 11 14 16 18 21 23 25 27 28 30 30 34 35 35
14 15 15 16 18 20 20 21 23 27 26 26 25 20 23 19 16 15 13 9 5 5 7 10 11 8 7 8 11 13 16 18 18 21 23 25 28 29 28 34 35 34 31
21 24 26 29 31 31 33 32 28 26 26 23 23 20 20 15 18 16 14 14 11 9 8 8 6 5 6 10 13 15 18 20 20 22 25 26 26 28 32 31 30 27 26
32 33 35 35 33 32 29 28 28 27 27 26 24 24 24 19 19 14 11 11 10 8 7 5 2 3 7 11 15 18 20 24 25 25 27 26 30 35 34 30 25 23 25
35 35 35 35 34 33 30 27 26 24 24 23 23 22 18 18 16 13 10 8 6 6 4 3 3 6 11 14 17 20 24 26 28 26 27 32 36 38 34 28 29 28 30
35 34 32 32 32 30 26 25 23 21 20 20 20 19 16 14 11 10 7 6 6 7 5 5 7 10 12 16 19 22 26 30 33 27 37 41 38 40 31 32 35 38 36
30 30 30 28 28 27 22 20 19 18 17 17 16 15 13 10 8 7 5 4 5 5 6 7 9 11 15 17 21 25 27 29 32 35 37 45 40 38 36 39 42 38 29
25 25 24 24 24 23 19 17 15 15 14 14 12 11 9 7 6 7 7 7 7 7 8 10 12 14 17 20 22 25 28 31 35 35 30 45 38 41 43 46 37 32 35
20 19 19 18 17 17 15 14 12 12 12 11 9 7 7 5 5 4 6 6 8 9 10 11 13 16 18 20 22 26 27 30 36 36 31 28 38 45 50 38 34 32 38
16 16 15 14 14 13 12 10 9 8 7 7 6 5 6 7 7 9 11 11 12 14 15 15 16 18 20 21 22 25 27 29 30 35 26 32 38 38 45 40 36 48 46
Wind_Direction
238 240 234 242 232 245 218 193 182 210 214 207 206 215 212 213 214 208 209 223 211 220 225 222 223 227 224 219 217 214 214 212 211 211 215 211 213 214 219 233 244 252 266
257 238 215 219 196 230 221 237 250 246 224 211 213 217 218 220 220 217 218 224 217 224 231 230 232 230 235 230 226 224 221 220 219 221 221 225 223 231 244 248 257 264 264
267 255 232 218 213 213 228 233 225 218 231 228 223 224 220 224 230 226 223 224 222 223 233 236 241 241 235 235 232 232 219 213 213 222 232 236 240 232 256 263 257 255 249
262 263 252 228 222 226 229 232 218 211 213 239 229 225 229 229 236 239 236 235 232 230 231 235 239 244 250 240 230 222 203 212 215 221 225 227 226 236 229 226 209 221 238
258 258 256 241 216 225 228 235 222 219 221 230 229 219 217 226 232 229 227 225 225 226 232 231 238 245 250 255 252 225 209 195 203 212 217 233 247 250 250 259 269 271 275
250 256 246 240 234 233 234 235 236 236 231 221 218 218 241 221 235 243 245 236 234 236 240 238 237 239 247 245 190 166 168 188 210 226 238 245 247 255 261 262 261 266 260
230 234 251 246 233 233 234 223 236 236 220 219 221 222 220 238 245 236 238 244 256 251 247 248 237 219 209 198 199 188 213 238 241 246 250 257 255 258 265 268 266 265 272
236 230 231 238 233 231 232 225 229 227 218 231 210 196 180 189 190 198 205 235 248 242 249 243 234 224 214 217 210 223 229 230 236 251 259 262 270 272 274 273 275 278 280
243 239 236 225 229 232 231 228 229 225 216 225 223 201 190 194 194 200 196 225 225 220 218 210 202 221 230 214 239 222 240 244 249 252 259 262 267 263 270 271 279 285 288
244 246 242 239 229 218 238 233 233 225 210 208 215 227 218 217 188 198 211 205 196 197 194 199 208 218 203 214 234 233 232 245 250 253 252 255 257 270 278 284 288 289 291
252 251 250 246 237 223 228 236 232 232 226 224 222 218 217 222 218 200 194 200 197 197 196 201 201 213 227 230 230 236 241 245 246 251 253 265 277 283 286 287 290 291 293
263 258 251 244 239 231 231 234 232 231 230 235 230 227 229 221 222 214 207 192 197 198 201 205 209 214 216 219 222 230 242 247 256 267 276 280 283 284 285 287 289 290 291
262 255 250 250 241 234 232 240 238 236 239 237 237 228 229 230 231 232 221 194 189 193 196 202 206 209 211 218 225 230 240 257 268 280 288 286 286 289 290 294 295 294 293
252 241 241 242 232 241 232 237 229 232 225 231 234 237 231 224 225 217 210 203 183 185 195 203 205 210 211 215 226 242 256 273 285 287 289 289 289 291 295 295 295 294 293
235 232 232 230 225 226 234 242 227 227 224 233 241 219 215 207 195 200 206 203 212 182 198 207 206 208 212 222 234 251 275 290 288 283 283 287 291 292 293 294 294 295 297
220 213 211 204 206 208 212 224 210 202 190 189 185 176 179 177 184 190 197 201 207 213 195 208 210 208 214 224 243 264 268 269 276 284 288 290 293 296 298 298 298 301 302
177 169 165 170 177 181 179 175 169 172 152 140 142 142 135 133 129 132 147 169 182 175 174 188 203 210 228 236 249 262 271 279 283 289 293 295 297 299 302 305 305 302 299
144 142 139 137 138 131 125 131 131 125 122 110 111 111 109 106 109 112 122 135 143 146 162 163 169 190 228 259 270 277 284 288 292 295 298 301 302 305 309 309 305 301 300
133 130 129 126 124 123 125 123 121 115 110 109 113 104 89 97 99 98 108 117 125 130 129 131 155 212 258 278 286 294 298 298 304 304 306 306 306 309 311 308 301 299 299
116 116 115 115 111 108 107 107 107 106 112 115 115 107 110 114 106 108 110 107 109 112 108 110 144 276 288 294 305 310 309 313 313 312 309 308 314 314 318 314 307 304 304
111 106 103 99 98 98 101 104 106 109 108 107 102 100 102 92 95 96 91 90 90 77 63 30 342 316 322 319 316 315 316 315 312 316 316 317 319 315 321 314 313 314 316
101 108 110 111 112 107 106 106 108 108 106 102 101 101 98 94 95 92 83 70 55 43 21 352 331 324 323 319 317 319 319 322 322 325 319 318 320 316 318 314 318 326 327
111 111 110 110 107 105 105 105 105 106 105 101 98 98 95 89 79 70 56 35 23 1 337 331 328 326 321 321 320 325 322 317 313 316 319 313 320 312 317 319 324 322 325
115 113 111 109 110 108 109 108 108 105 101 94 90 82 79 72 52 30 13 0 346 337 333 332 330 326 322 325 322 316 315 312 312 315 326 306 317 315 318 318 321 321 322
115 114 111 108 105 103 99 92 85 80 75 73 69 64 51 36 21 355 331 320 320 321 319 318 322 325 323 321 315 311 315 310 311 314 325 300 316 315 318 323 323 318 314
119 115 114 111 107 100 93 85 77 68 62 57 49 30 6 353 348 331 318 320 321 320 320 316 317 320 319 317 313 312 314 309 310 315 319 306 309 320 318 311 303 310 309